QPF
0.01 0.01 0.01 0.01 0.01 0.00 0.00 0.00 0.01 0.01 0.01 0.01 0.01 0.00 0.00 0.01 0.01 0.01 0.01 0.00 0.00 0.00 0.00 0.00 0.00 0.01 0.01 0.01 0.01 0.00 0.01 0.01 0.01 0.00 0.00 0.00 0.00 0.00 0.00 0.00 0.00 0.00 0.00 0.00
0.01 0.01 0.01 0.01 0.01 0.01 0.01 0.01 0.01 0.01 0.00 0.00 0.01 0.01 0.01 0.01 0.01 0.01 0.00 0.00 0.00 0.00 0.00 0.00 0.01 0.01 0.00 0.00 0.01 0.00 0.01 0.01 0.01 0.00 0.00 0.00 0.00 0.00 0.00 0.00 0.00 0.00 0.00 0.00
0.01 0.01 0.01 0.00 0.00 0.01 0.01 0.01 0.02 0.01 0.01 0.00 0.01 0.01 0.01 0.01 0.00 0.00 0.01 0.01 0.01 0.01 0.00 0.00 0.01 0.00 0.00 0.01 0.01 0.00 0.02 0.03 0.02 0.01 0.00 0.00 0.00 0.00 0.00 0.00 0.00 0.00 0.00 0.00
0.01 0.01 0.01 0.00 0.00 0.01 0.01 0.02 0.02 0.01 0.00 0.00 0.00 0.00 0.00 0.01 0.01 0.00 0.00 0.01 0.01 0.01 0.01 0.00 0.00 0.00 0.00 0.00 0.00 0.00 0.01 0.01 0.01 0.00 0.00 0.00 0.00 0.00 0.00 0.00 0.00 0.00 0.00 0.00
0.01 0.01 0.01 0.01 0.00 0.01 0.01 0.02 0.02 0.01 0.00 0.00 0.00 0.00 0.00 0.01 0.01 0.00 0.00 0.00 0.01 0.01 0.01 0.00 0.00 0.01 0.01 0.00 0.00 0.00 0.00 0.00 0.00 0.00 0.00 0.00 0.00 0.00 0.00 0.00 0.00 0.00 0.00 0.00
0.01 0.01 0.01 0.01 0.00 0.00 0.01 0.02 0.02 0.00 0.00 0.00 0.00 0.00 0.00 0.01 0.00 0.00 0.01 0.00 0.00 0.00 0.01 0.00 0.00 0.01 0.01 0.01 0.00 0.00 0.00 0.00 0.00 0.00 0.00 0.00 0.00 0.00 0.00 0.00 0.00 0.00 0.00 0.00
0.01 0.01 0.01 0.01 0.00 0.00 0.01 0.02 0.02 0.01 0.00 0.00 0.00 0.00 0.01 0.01 0.00 0.01 0.01 0.01 0.00 0.00 0.00 0.00 0.00 0.00 0.00 0.01 0.00 0.00 0.00 0.00 0.00 0.00 0.00 0.00 0.00 0.00 0.00 0.00 0.00 0.00 0.00 0.00
0.01 0.00 0.01 0.01 0.00 0.00 0.01 0.02 0.01 0.01 0.01 0.01 0.01 0.00 0.00 0.01 0.01 0.01 0.01 0.01 0.01 0.01 0.01 0.01 0.01 0.01 0.01 0.01 0.01 0.01 0.01 0.01 0.00 0.00 0.00 0.00 0.00 0.00 0.00 0.00 0.00 0.00 0.00 0.00
0.01 0.01 0.01 0.01 0.00 0.00 0.01 0.01 0.01 0.01 0.01 0.01 0.00 0.00 0.00 0.00 0.01 0.01 0.01 0.01 0.01 0.01 0.01 0.01 0.01 0.01 0.01 0.01 0.01 0.01 0.01 0.01 0.01 0.01 0.01 0.00 0.00 0.00 0.00 0.00 0.00 0.00 0.00 0.00
0.01 0.01 0.01 0.00 0.00 0.00 0.00 0.01 0.00 0.00 0.00 0.00 0.00 0.00 0.00 0.00 0.00 0.01 0.01 0.01 0.01 0.01 0.00 0.00 0.00 0.01 0.00 0.00 0.01 0.01 0.01 0.01 0.01 0.01 0.01 0.00 0.00 0.00 0.00 0.00 0.00 0.00 0.00 0.00
0.01 0.01 0.01 0.01 0.00 0.00 0.00 0.00 0.00 0.00 0.00 0.00 0.00 0.00 0.00 0.00 0.00 0.00 0.01 0.01 0.01 0.00 0.00 0.00 0.00 0.00 0.00 0.00 0.01 0.00 0.00 0.00 0.00 0.00 0.00 0.00 0.00 0.00 0.00 0.00 0.00 0.00 0.00 0.00
0.01 0.01 0.01 0.01 0.01 0.00 0.00 0.00 0.00 0.00 0.00 0.00 0.00 0.00 0.00 0.00 0.00 0.00 0.00 0.00 0.01 0.00 0.00 0.00 0.00 0.00 0.00 0.00 0.01 0.01 0.01 0.00 0.00 0.00 0.00 0.00 0.00 0.00 0.00 0.00 0.00 0.00 0.00 0.00
0.00 0.00 0.00 0.00 0.00 0.00 0.00 0.00 0.00 0.00 0.00 0.00 0.00 0.00 0.00 0.00 0.00 0.00 0.00 0.00 0.01 0.01 0.01 0.00 0.00 0.00 0.00 0.00 0.00 0.01 0.00 0.00 0.00 0.00 0.00 0.00 0.00 0.00 0.00 0.00 0.00 0.00 0.00 0.00
0.00 0.00 0.00 0.00 0.01 0.01 0.01 0.00 0.00 0.00 0.00 0.00 0.00 0.00 0.00 0.00 0.00 0.00 0.00 0.01 0.01 0.01 0.01 0.00 0.00 0.00 0.00 0.00 0.00 0.00 0.00 0.00 0.00 0.00 0.00 0.00 0.00 0.00 0.00 0.00 0.00 0.00 0.00 0.00
0.00 0.00 0.00 0.00 0.00 0.01 0.02 0.01 0.01 0.01 0.00 0.00 0.00 0.00 0.00 0.00 0.00 0.00 0.00 0.01 0.01 0.00 0.01 0.01 0.01 0.01 0.01 0.00 0.00 0.00 0.00 0.01 0.01 0.00 0.00 0.00 0.00 0.00 0.00 0.00 0.00 0.00 0.00 0.00
0.00 0.00 0.00 0.00 0.00 0.00 0.01 0.01 0.01 0.01 0.01 0.01 0.00 0.00 0.00 0.00 0.01 0.00 0.00 0.00 0.00 0.00 0.00 0.01 0.01 0.01 0.01 0.00 0.00 0.00 0.00 0.00 0.00 0.00 0.00 0.00 0.00 0.00 0.00 0.00 0.00 0.00 0.00 0.00
0.00 0.00 0.00 0.00 0.00 0.00 0.01 0.01 0.01 0.01 0.01 0.01 0.01 0.01 0.00 0.00 0.01 0.01 0.00 0.01 0.00 0.00 0.00 0.00 0.01 0.01 0.01 0.00 0.00 0.00 0.00 0.00 0.00 0.00 0.00 0.00 0.00 0.00 0.00 0.00 0.00 0.00 0.00 0.00
0.00 0.00 0.00 0.00 0.00 0.00 0.01 0.01 0.01 0.01 0.01 0.01 0.01 0.01 0.01 0.00 0.00 0.00 0.00 0.00 0.00 0.00 0.01 0.01 0.01 0.01 0.01 0.00 0.00 0.00 0.00 0.00 0.00 0.00 0.00 0.00 0.00 0.00 0.00 0.00 0.00 0.00 0.00 0.00
0.00 0.00 0.00 0.00 0.00 0.00 0.00 0.00 0.00 0.00 0.00 0.00 0.00 0.00 0.00 0.00 0.00 0.00 0.00 0.00 0.00 0.00 0.00 0.01 0.01 0.01 0.01 0.00 0.00 0.00 0.00 0.00 0.00 0.00 0.00 0.00 0.00 0.00 0.00 0.00 0.00 0.00 0.00 0.00
0.00 0.00 0.00 0.00 0.00 0.00 0.00 0.00 0.00 0.00 0.00 0.00 0.00 0.00 0.00 0.00 0.00 0.00 0.00 0.00 0.00 0.01 0.01 0.01 0.01 0.01 0.00 0.00 0.00 0.00 0.00 0.00 0.00 0.00 0.00 0.00 0.00 0.00 0.00 0.00 0.00 0.00 0.00 0.00
0.00 0.00 0.00 0.00 0.00 0.00 0.00 0.00 0.00 0.00 0.00 0.00 0.00 0.00 0.01 0.00 0.00 0.01 0.00 0.00 0.00 0.00 0.00 0.00 0.00 0.00 0.00 0.00 0.00 0.00 0.00 0.00 0.00 0.00 0.00 0.00 0.00 0.00 0.00 0.00 0.00 0.00 0.00 0.00
0.00 0.00 0.00 0.00 0.00 0.00 0.00 0.00 0.00 0.00 0.00 0.00 0.00 0.00 0.00 0.00 0.01 0.01 0.01 0.01 0.00 0.00 0.00 0.00 0.00 0.00 0.00 0.00 0.00 0.00 0.00 0.00 0.00 0.00 0.00 0.00 0.00 0.00 0.00 0.00 0.00 0.00 0.00 0.00
0.00 0.00 0.00 0.00 0.00 0.00 0.00 0.00 0.00 0.00 0.00 0.00 0.00 0.00 0.00 0.00 0.00 0.01 0.01 0.01 0.01 0.00 0.00 0.00 0.00 0.00 0.00 0.00 0.01 0.01 0.01 0.01 0.00 0.00 0.00 0.00 0.01 0.01 0.01 0.01 0.01 0.01 0.00 0.00
0.00 0.00 0.00 0.00 0.00 0.00 0.00 0.00 0.00 0.00 0.00 0.00 0.00 0.00 0.00 0.00 0.00 0.00 0.00 0.01 0.01 0.01 0.01 0.00 0.00 0.00 0.01 0.01 0.01 0.01 0.01 0.01 0.01 0.00 0.00 0.01 0.01 0.01 0.01 0.01 0.01 0.01 0.01 0.01
0.00 0.00 0.00 0.00 0.00 0.00 0.00 0.00 0.00 0.00 0.00 0.00 0.00 0.00 0.00 0.00 0.00 0.01 0.00 0.01 0.01 0.01 0.01 0.01 0.01 0.01 0.01 0.01 0.01 0.01 0.01 0.01 0.01 0.01 0.00 0.00 0.00 0.00 0.00 0.01 0.01 0.01 0.01 0.01
0.00 0.00 0.00 0.00 0.00 0.00 0.00 0.00 0.00 0.00 0.00 0.00 0.00 0.00 0.00 0.00 0.00 0.00 0.00 0.00 0.00 0.01 0.01 0.01 0.02 0.02 0.01 0.01 0.01 0.01 0.01 0.01 0.01 0.01 0.01 0.01 0.00 0.00 0.00 0.00 0.00 0.01 0.01 0.01
0.00 0.00 0.00 0.00 0.00 0.00 0.00 0.00 0.00 0.00 0.00 0.00 0.00 0.00 0.00 0.00 0.01 0.01 0.00 0.00 0.01 0.01 0.02 0.02 0.02 0.02 0.02 0.01 0.01 0.01 0.01 0.01 0.01 0.01 0.01 0.01 0.00 0.00 0.00 0.00 0.00 0.00 0.00 0.01
MSLP
1017.13 1017.51 1017.86 1018.16 1018.35 1018.41 1018.28 1017.96 1017.45 1016.78 1016.00 1015.19 1014.42 1013.78 1013.31 1013.05 1013.02 1013.19 1013.52 1013.98 1014.51 1015.06 1015.61 1016.13 1016.63 1017.11 1017.58 1018.05 1018.52 1019.00 1019.48 1019.94 1020.37 1020.76 1021.12 1021.45 1021.75 1022.04 1022.33 1022.62 1022.93 1023.24 1023.54 1023.84
1016.97 1017.22 1017.40 1017.50 1017.50 1017.37 1017.10 1016.69 1016.15 1015.52 1014.84 1014.16 1013.54 1013.03 1012.67 1012.47 1012.44 1012.57 1012.82 1013.18 1013.61 1014.08 1014.57 1015.09 1015.62 1016.17 1016.74 1017.32 1017.91 1018.50 1019.06 1019.59 1020.08 1020.52 1020.91 1021.26 1021.59 1021.91 1022.24 1022.56 1022.90 1023.24 1023.56 1023.87
1016.91 1017.01 1017.02 1016.94 1016.75 1016.46 1016.06 1015.58 1015.03 1014.44 1013.84 1013.27 1012.76 1012.36 1012.06 1011.89 1011.84 1011.90 1012.06 1012.30 1012.62 1013.00 1013.44 1013.94 1014.50 1015.11 1015.76 1016.45 1017.15 1017.84 1018.49 1019.10 1019.65 1020.15 1020.59 1020.98 1021.36 1021.72 1022.08 1022.45 1022.82 1023.19 1023.54 1023.85
1016.90 1016.87 1016.72 1016.47 1016.13 1015.71 1015.22 1014.69 1014.13 1013.57 1013.04 1012.56 1012.14 1011.80 1011.54 1011.37 1011.27 1011.25 1011.30 1011.42 1011.63 1011.92 1012.30 1012.77 1013.34 1014.00 1014.72 1015.49 1016.28 1017.06 1017.80 1018.49 1019.11 1019.66 1020.16 1020.61 1021.03 1021.44 1021.85 1022.26 1022.66 1023.06 1023.42 1023.74
1016.92 1016.75 1016.47 1016.10 1015.64 1015.13 1014.59 1014.03 1013.48 1012.96 1012.48 1012.06 1011.70 1011.39 1011.14 1010.94 1010.78 1010.67 1010.62 1010.63 1010.73 1010.92 1011.24 1011.67 1012.24 1012.91 1013.68 1014.51 1015.36 1016.21 1017.02 1017.78 1018.46 1019.07 1019.63 1020.13 1020.61 1021.07 1021.52 1021.97 1022.40 1022.81 1023.18 1023.51
1016.88 1016.60 1016.23 1015.77 1015.25 1014.70 1014.13 1013.58 1013.05 1012.57 1012.14 1011.77 1011.44 1011.15 1010.88 1010.64 1010.42 1010.22 1010.06 1009.97 1009.96 1010.07 1010.32 1010.70 1011.24 1011.91 1012.69 1013.54 1014.44 1015.33 1016.19 1016.99 1017.73 1018.40 1019.01 1019.57 1020.09 1020.60 1021.09 1021.56 1022.01 1022.44 1022.81 1023.14
1016.75 1016.40 1015.97 1015.48 1014.94 1014.39 1013.84 1013.32 1012.83 1012.39 1012.00 1011.66 1011.35 1011.05 1010.76 1010.47 1010.18 1009.90 1009.66 1009.47 1009.37 1009.39 1009.56 1009.89 1010.38 1011.02 1011.78 1012.63 1013.53 1014.44 1015.33 1016.17 1016.95 1017.66 1018.32 1018.93 1019.49 1020.04 1020.55 1021.05 1021.51 1021.93 1022.31 1022.63
1016.50 1016.13 1015.69 1015.21 1014.70 1014.19 1013.69 1013.22 1012.78 1012.39 1012.03 1011.70 1011.39 1011.08 1010.76 1010.41 1010.06 1009.71 1009.38 1009.11 1008.93 1008.88 1008.97 1009.23 1009.65 1010.24 1010.96 1011.78 1012.66 1013.56 1014.46 1015.32 1016.13 1016.88 1017.58 1018.23 1018.83 1019.40 1019.93 1020.43 1020.90 1021.32 1021.69 1022.01
1016.14 1015.79 1015.39 1014.96 1014.52 1014.08 1013.65 1013.24 1012.86 1012.51 1012.17 1011.85 1011.52 1011.18 1010.82 1010.43 1010.02 1009.60 1009.21 1008.87 1008.62 1008.50 1008.52 1008.70 1009.05 1009.57 1010.22 1010.99 1011.83 1012.71 1013.60 1014.47 1015.30 1016.08 1016.81 1017.49 1018.13 1018.71 1019.26 1019.76 1020.21 1020.63 1020.99 1021.32
1015.73 1015.42 1015.09 1014.75 1014.40 1014.05 1013.71 1013.36 1013.03 1012.70 1012.38 1012.05 1011.69 1011.32 1010.91 1010.48 1010.02 1009.56 1009.11 1008.72 1008.42 1008.23 1008.18 1008.29 1008.56 1008.99 1009.57 1010.27 1011.06 1011.90 1012.77 1013.63 1014.48 1015.28 1016.04 1016.75 1017.40 1017.99 1018.54 1019.03 1019.48 1019.88 1020.24 1020.57
1015.30 1015.07 1014.84 1014.60 1014.35 1014.10 1013.83 1013.55 1013.25 1012.94 1012.61 1012.26 1011.88 1011.46 1011.02 1010.54 1010.05 1009.55 1009.08 1008.65 1008.30 1008.05 1007.94 1007.97 1008.17 1008.51 1009.00 1009.63 1010.35 1011.14 1011.98 1012.83 1013.68 1014.50 1015.27 1015.99 1016.66 1017.26 1017.80 1018.28 1018.72 1019.10 1019.46 1019.79
1014.93 1014.80 1014.66 1014.53 1014.38 1014.20 1014.00 1013.77 1013.50 1013.19 1012.85 1012.47 1012.05 1011.60 1011.13 1010.62 1010.11 1009.59 1009.10 1008.65 1008.27 1007.98 1007.81 1007.78 1007.88 1008.14 1008.54 1009.08 1009.72 1010.45 1011.25 1012.07 1012.91 1013.73 1014.51 1015.24 1015.91 1016.51 1017.04 1017.51 1017.92 1018.30 1018.64 1018.97
1014.67 1014.62 1014.58 1014.54 1014.47 1014.36 1014.21 1014.01 1013.75 1013.44 1013.08 1012.68 1012.23 1011.76 1011.26 1010.75 1010.23 1009.71 1009.22 1008.76 1008.35 1008.03 1007.81 1007.70 1007.73 1007.89 1008.19 1008.63 1009.19 1009.85 1010.58 1011.37 1012.17 1012.98 1013.75 1014.48 1015.14 1015.73 1016.25 1016.71 1017.10 1017.46 1017.79 1018.12
1014.54 1014.57 1014.61 1014.64 1014.63 1014.57 1014.45 1014.27 1014.01 1013.69 1013.32 1012.90 1012.45 1011.97 1011.47 1010.96 1010.45 1009.94 1009.45 1009.00 1008.58 1008.23 1007.95 1007.78 1007.71 1007.78 1007.97 1008.30 1008.76 1009.33 1009.98 1010.70 1011.46 1012.23 1012.98 1013.69 1014.34 1014.91 1015.41 1015.84 1016.22 1016.56 1016.88 1017.20
1014.55 1014.65 1014.74 1014.82 1014.85 1014.82 1014.72 1014.55 1014.29 1013.97 1013.60 1013.18 1012.72 1012.25 1011.77 1011.28 1010.80 1010.31 1009.84 1009.38 1008.96 1008.57 1008.24 1008.00 1007.84 1007.80 1007.88 1008.09 1008.43 1008.89 1009.44 1010.08 1010.77 1011.48 1012.18 1012.85 1013.47 1014.02 1014.50 1014.91 1015.27 1015.59 1015.90 1016.21
1014.70 1014.83 1014.97 1015.07 1015.13 1015.11 1015.02 1014.85 1014.60 1014.28 1013.92 1013.51 1013.08 1012.64 1012.19 1011.73 1011.28 1010.82 1010.37 1009.92 1009.47 1009.05 1008.67 1008.34 1008.09 1007.94 1007.90 1007.98 1008.19 1008.52 1008.96 1009.49 1010.08 1010.71 1011.35 1011.96 1012.53 1013.04 1013.50 1013.89 1014.24 1014.55 1014.85 1015.15
1014.95 1015.12 1015.27 1015.38 1015.44 1015.43 1015.34 1015.18 1014.94 1014.64 1014.29 1013.92 1013.52 1013.12 1012.71 1012.29 1011.87 1011.45 1011.00 1010.55 1010.09 1009.63 1009.19 1008.79 1008.44 1008.17 1008.00 1007.96 1008.03 1008.22 1008.52 1008.93 1009.40 1009.93 1010.47 1011.01 1011.52 1011.99 1012.41 1012.78 1013.12 1013.43 1013.72 1014.03
1015.30 1015.47 1015.62 1015.73 1015.79 1015.77 1015.68 1015.52 1015.29 1015.02 1014.71 1014.37 1014.02 1013.66 1013.29 1012.92 1012.53 1012.12 1011.69 1011.22 1010.74 1010.24 1009.74 1009.27 1008.83 1008.46 1008.17 1007.99 1007.92 1007.97 1008.14 1008.40 1008.74 1009.14 1009.57 1010.02 1010.45 1010.87 1011.25 1011.60 1011.93 1012.24 1012.55 1012.86
1015.69 1015.86 1016.00 1016.10 1016.13 1016.11 1016.01 1015.86 1015.65 1015.40 1015.12 1014.83 1014.52 1014.20 1013.87 1013.53 1013.16 1012.76 1012.33 1011.86 1011.35 1010.81 1010.27 1009.72 1009.21 1008.75 1008.36 1008.07 1007.87 1007.78 1007.80 1007.92 1008.11 1008.37 1008.68 1009.02 1009.36 1009.71 1010.05 1010.38 1010.70 1011.02 1011.34 1011.67
1016.11 1016.26 1016.38 1016.45 1016.46 1016.41 1016.31 1016.16 1015.97 1015.75 1015.50 1015.24 1014.96 1014.68 1014.37 1014.05 1013.69 1013.29 1012.85 1012.37 1011.84 1011.28 1010.70 1010.11 1009.55 1009.02 1008.55 1008.16 1007.86 1007.65 1007.53 1007.50 1007.55 1007.66 1007.83 1008.04 1008.29 1008.56 1008.84 1009.14 1009.45 1009.78 1010.13 1010.49
1016.51 1016.63 1016.72 1016.75 1016.73 1016.67 1016.55 1016.40 1016.22 1016.01 1015.78 1015.55 1015.30 1015.03 1014.74 1014.42 1014.06 1013.66 1013.21 1012.71 1012.17 1011.59 1010.99 1010.39 1009.80 1009.24 1008.72 1008.27 1007.88 1007.56 1007.32 1007.15 1007.06 1007.02 1007.05 1007.13 1007.26 1007.43 1007.65 1007.91 1008.21 1008.55 1008.92 1009.33
1016.86 1016.95 1016.99 1016.98 1016.93 1016.83 1016.70 1016.54 1016.36 1016.16 1015.95 1015.72 1015.48 1015.22 1014.92 1014.60 1014.23 1013.82 1013.35 1012.85 1012.30 1011.73 1011.14 1010.54 1009.95 1009.38 1008.84 1008.35 1007.90 1007.50 1007.16 1006.87 1006.64 1006.46 1006.34 1006.28 1006.28 1006.35 1006.49 1006.70 1006.98 1007.33 1007.73 1008.18
1017.13 1017.18 1017.17 1017.12 1017.03 1016.91 1016.76 1016.59 1016.40 1016.20 1015.99 1015.76 1015.51 1015.24 1014.93 1014.58 1014.19 1013.76 1013.29 1012.78 1012.23 1011.67 1011.10 1010.53 1009.96 1009.41 1008.88 1008.37 1007.89 1007.43 1007.01 1006.61 1006.25 1005.94 1005.68 1005.48 1005.36 1005.32 1005.38 1005.53 1005.78 1006.12 1006.55 1007.04
1017.31 1017.31 1017.26 1017.17 1017.04 1016.89 1016.72 1016.53 1016.33 1016.12 1015.90 1015.66 1015.39 1015.09 1014.76 1014.38 1013.96 1013.51 1013.02 1012.50 1011.96 1011.42 1010.87 1010.33 1009.81 1009.29 1008.78 1008.28 1007.78 1007.29 1006.80 1006.31 1005.85 1005.42 1005.03 1004.70 1004.46 1004.32 1004.29 1004.38 1004.60 1004.93 1005.38 1005.90
1017.38 1017.33 1017.24 1017.12 1016.96 1016.78 1016.59 1016.39 1016.18 1015.96 1015.72 1015.45 1015.15 1014.81 1014.43 1014.02 1013.56 1013.06 1012.55 1012.02 1011.48 1010.95 1010.43 1009.92 1009.43 1008.95 1008.47 1007.98 1007.49 1006.97 1006.44 1005.90 1005.35 1004.82 1004.33 1003.90 1003.55 1003.32 1003.21 1003.25 1003.43 1003.75 1004.21 1004.77
1017.34 1017.26 1017.14 1016.99 1016.81 1016.62 1016.41 1016.20 1015.97 1015.73 1015.45 1015.15 1014.80 1014.41 1013.98 1013.50 1012.99 1012.44 1011.89 1011.33 1010.78 1010.24 1009.74 1009.25 1008.79 1008.34 1007.88 1007.42 1006.93 1006.41 1005.86 1005.28 1004.69 1004.09 1003.53 1003.02 1002.60 1002.30 1002.14 1002.13 1002.29 1002.60 1003.07 1003.66
1017.21 1017.11 1016.97 1016.80 1016.62 1016.42 1016.20 1015.97 1015.72 1015.44 1015.13 1014.77 1014.37 1013.91 1013.40 1012.85 1012.26 1011.65 1011.03 1010.42 1009.84 1009.28 1008.77 1008.29 1007.84 1007.40 1006.97 1006.53 1006.05 1005.55 1005.00 1004.41 1003.80 1003.18 1002.59 1002.05 1001.59 1001.26 1001.07 1001.04 1001.19 1001.50 1001.98 1002.60
Thickness
5701 5708 5710 5709 5711 5711 5705 5700 5691 5699 5707 5720 5729 5734 5736 5736 5734 5731 5729 5728 5727 5725 5724 5722 5720 5719 5717 5715 5713 5712 5708 5705 5702 5701 5699 5697 5695 5694 5692 5691 5689 5687 5684 5682
5699 5708 5709 5707 5713 5714 5712 5712 5707 5709 5712 5731 5737 5737 5734 5734 5733 5731 5730 5730 5729 5728 5725 5723 5721 5719 5717 5714 5712 5710 5706 5703 5700 5698 5696 5694 5692 5690 5688 5686 5684 5682 5680 5678
5683 5699 5701 5693 5710 5714 5714 5719 5716 5708 5719 5732 5731 5732 5734 5735 5735 5734 5733 5733 5731 5730 5729 5727 5724 5721 5717 5714 5711 5707 5704 5701 5698 5695 5692 5690 5689 5686 5683 5681 5679 5677 5675 5674
5678 5685 5674 5700 5725 5725 5720 5723 5726 5727 5730 5733 5736 5738 5741 5742 5739 5737 5736 5735 5733 5732 5730 5728 5726 5722 5718 5714 5709 5705 5701 5698 5695 5693 5689 5687 5684 5682 5679 5677 5674 5672 5670 5669
5669 5670 5680 5704 5721 5724 5717 5715 5728 5727 5730 5734 5738 5735 5733 5741 5743 5742 5741 5739 5736 5735 5732 5728 5724 5721 5716 5710 5706 5702 5699 5696 5694 5690 5686 5683 5680 5678 5675 5673 5670 5668 5666 5664
5668 5668 5668 5695 5721 5731 5721 5705 5726 5728 5728 5730 5729 5714 5721 5738 5740 5740 5740 5738 5735 5732 5729 5725 5723 5719 5713 5708 5704 5701 5699 5696 5692 5689 5684 5681 5678 5675 5672 5669 5666 5664 5661 5659
5667 5666 5676 5703 5720 5722 5694 5698 5723 5727 5729 5728 5725 5727 5734 5739 5738 5738 5737 5735 5733 5729 5726 5723 5721 5717 5710 5705 5703 5702 5698 5693 5689 5685 5682 5678 5674 5671 5668 5665 5661 5658 5656 5654
5661 5660 5671 5709 5712 5703 5704 5719 5723 5726 5728 5729 5729 5732 5733 5734 5733 5733 5731 5729 5728 5724 5722 5720 5718 5714 5707 5703 5703 5699 5694 5689 5684 5681 5678 5674 5669 5666 5662 5659 5655 5652 5649 5647
5673 5677 5697 5707 5710 5716 5717 5717 5721 5722 5726 5727 5725 5725 5727 5727 5727 5727 5726 5724 5723 5720 5716 5714 5713 5711 5705 5702 5699 5694 5688 5684 5680 5676 5673 5669 5665 5660 5656 5653 5649 5646 5643 5640
5676 5685 5696 5703 5709 5713 5715 5716 5719 5721 5723 5723 5721 5721 5720 5720 5720 5719 5719 5718 5716 5713 5710 5707 5707 5706 5703 5699 5695 5689 5683 5678 5674 5670 5666 5663 5660 5656 5652 5647 5643 5641 5637 5634
5671 5681 5689 5696 5702 5706 5710 5713 5714 5716 5718 5718 5717 5715 5715 5714 5713 5713 5712 5711 5710 5708 5705 5703 5701 5699 5697 5693 5689 5683 5678 5673 5669 5665 5661 5656 5653 5650 5648 5645 5642 5638 5634 5631
5664 5677 5678 5685 5697 5702 5702 5704 5706 5707 5708 5711 5712 5710 5709 5708 5707 5706 5705 5704 5702 5701 5699 5697 5695 5692 5690 5687 5684 5678 5671 5666 5663 5658 5654 5650 5645 5641 5641 5639 5637 5635 5632 5628
5675 5681 5682 5687 5692 5696 5697 5698 5700 5701 5701 5701 5703 5704 5703 5701 5700 5699 5698 5697 5696 5694 5692 5690 5688 5685 5683 5681 5677 5673 5667 5662 5657 5653 5648 5644 5639 5635 5631 5630 5629 5627 5624 5621
5675 5676 5675 5679 5682 5687 5689 5692 5693 5694 5695 5696 5695 5695 5695 5694 5693 5692 5691 5691 5690 5688 5685 5683 5681 5678 5677 5674 5670 5666 5661 5658 5653 5647 5643 5639 5635 5631 5627 5623 5619 5617 5616 5613
5667 5669 5669 5673 5675 5677 5680 5681 5681 5681 5683 5685 5687 5687 5686 5685 5684 5685 5685 5685 5683 5680 5678 5676 5673 5671 5670 5667 5663 5659 5654 5650 5646 5642 5638 5633 5629 5624 5620 5617 5613 5609 5606 5604
5658 5660 5661 5662 5664 5666 5668 5670 5670 5671 5674 5676 5676 5677 5678 5678 5677 5676 5676 5676 5674 5671 5670 5668 5666 5665 5663 5660 5656 5651 5648 5645 5641 5635 5630 5626 5621 5617 5613 5609 5605 5601 5598 5596
5645 5646 5649 5651 5654 5656 5659 5661 5663 5664 5665 5667 5668 5669 5668 5667 5666 5665 5666 5667 5667 5665 5664 5662 5660 5658 5656 5653 5648 5644 5640 5637 5634 5628 5623 5619 5615 5610 5606 5602 5598 5595 5592 5590
5643 5645 5645 5646 5647 5648 5650 5653 5655 5656 5657 5660 5661 5660 5659 5658 5656 5656 5657 5657 5655 5654 5654 5654 5653 5650 5648 5645 5641 5637 5632 5628 5624 5620 5616 5612 5608 5604 5599 5595 5592 5588 5584 5581
5634 5635 5636 5638 5640 5641 5642 5643 5646 5647 5649 5650 5651 5650 5651 5651 5650 5649 5648 5646 5645 5643 5644 5645 5644 5641 5638 5635 5632 5628 5624 5619 5615 5611 5608 5605 5600 5595 5591 5588 5584 5580 5576 5572
5623 5626 5627 5629 5631 5632 5633 5635 5637 5639 5640 5640 5640 5640 5640 5640 5640 5639 5638 5636 5636 5637 5637 5635 5634 5631 5629 5626 5623 5619 5615 5610 5606 5602 5598 5594 5590 5587 5583 5579 5575 5571 5568 5564
5611 5613 5616 5617 5620 5622 5624 5625 5626 5628 5629 5630 5630 5629 5629 5629 5629 5628 5626 5624 5626 5627 5626 5625 5623 5620 5618 5616 5613 5608 5604 5600 5596 5592 5588 5584 5581 5577 5573 5570 5566 5563 5560 5556
5599 5601 5604 5606 5608 5610 5612 5614 5616 5617 5618 5618 5619 5619 5618 5616 5616 5616 5615 5615 5615 5615 5614 5613 5611 5610 5608 5605 5601 5597 5593 5590 5586 5582 5578 5575 5571 5567 5564 5560 5556 5553 5550 5547
5586 5589 5592 5594 5596 5597 5600 5602 5604 5605 5606 5606 5606 5606 5606 5605 5605 5604 5602 5602 5603 5604 5602 5600 5600 5599 5597 5593 5589 5585 5582 5579 5575 5572 5568 5565 5561 5558 5554 5550 5547 5543 5540 5537
5573 5576 5579 5581 5583 5585 5586 5588 5590 5592 5593 5594 5594 5595 5594 5592 5591 5592 5592 5592 5592 5591 5589 5588 5587 5586 5584 5579 5576 5573 5570 5567 5564 5561 5558 5554 5551 5547 5543 5540 5536 5533 5530 5527
5561 5564 5566 5568 5569 5571 5573 5575 5576 5578 5578 5579 5580 5581 5581 5581 5580 5579 5579 5579 5579 5577 5575 5574 5574 5572 5568 5565 5562 5559 5557 5554 5552 5549 5546 5542 5539 5536 5533 5529 5526 5523 5520 5517
5549 5551 5553 5555 5556 5557 5559 5561 5562 5563 5564 5564 5564 5566 5566 5566 5567 5566 5565 5565 5564 5563 5561 5559 5557 5556 5553 5551 5548 5546 5544 5541 5539 5535 5532 5530 5527 5524 5521 5518 5515 5512 5509 5507
5537 5539 5540 5541 5544 5545 5547 5548 5549 5549 5550 5551 5550 5551 5551 5552 5551 5551 5550 5549 5548 5546 5545 5543 5541 5540 5538 5536 5534 5532 5530 5527 5524 5522 5519 5516 5514 5511 5509 5506 5503 5501 5498 5496